{"data":{"norad_id":53590,"epoch":"2026-09-20T21:18:59.336064Z","epoch_age_seconds":45450,"freshness":"FRESH","line1":"1 53590U 22104C   26263.88818676 -.00000453  00000+0 -28416-5 0  9991","line2":"2 53590  53.1619  50.2288 0001174  82.1585 277.9550 15.31702449225961","mean_motion":15.31702449,"eccentricity":0.0001174,"inclination_deg":53.1619,"raan_deg":50.2288,"arg_perigee_deg":82.1585,"mean_anomaly_deg":277.955,"bstar":-2.8416e-6,"rev_number":22596,"period_min":94.013037645799,"perigee_km":469.92863759163,"apogee_km":471.53675219599,"semimajor_km":6848.8696948938,"source":"CELESTRAK","updated_at":"2026-09-21T09:00:32.934731Z"}}